カタログに戻る

ARIANE 42L R/B

運用中HEO
NORAD 22655·ROCKET BODY·🇫🇷 France

打ち上げ May 12, 1993 から Guiana Space Centre

Loading…

次のパス (今後24時間)

TLE

最新Source: Space-Track

元期: Sep 14, 2026, 10:40 UTC

1 22655U 93031C   26257.44492953  .00003833  00000-0  12277-2 0  9996
2 22655   4.8322 232.1462 6654428  85.9556 341.7719  3.09030320318907

AllMySatでARIANE 42L R/Bをリアルタイム追跡

Download on the App Store